Starlink 4037

operational
NORAD ID: 52663 Int'l Des: 2022-053 Owner: SPXS Country: US Constellation: starlink
LEOCIRCULAR

关于 Starlink 4037

正在加载描述...

实时位置

正在加载3D地球...

即将过境

高度历史

Altitude vs Time

uPlot chart will show altitude changes over time

两行轨道根数

1 52663U 22053H 25350.21034626 .00000490 00000-0 48882-4 0 9990
2 52663 53.2157 168.8759 0001592 91.0169 269.1005 15.08833822198443
Epoch: Dec 16, 2025 • Age: 17 hours

当前状态

高度 558.5 km
速度 7.58 km/s
星下点 -51.04°S, 4.37°W
发射日期 May 18, 2022
运行时间 3.5 years
类型 internet

技术详情

分类 Payload
质量 297.00 kg
干质量 275.00 kg
总质量 297.00 kg
长度 0.20 m
直径 2.80 m
跨度 9.00 m
形状 Box + pan
制造商 SPXS
平台类型 Starlink
阶段状态 In Orbit
所有者/国家 SPXS/US

大型星座

Loading constellations...